Goodland, KS

9:37 AM MST on January 19, 2017 (GMT -0700)
Renner-Goodland Municipal

Weather History for KGLD - September, 2014

Change the Weather History Date:

Sunday, September 14, 2014

  Actual Average Record
Temperature  
Mean Temperature 58 °F 66 °F  
Max Temperature 75 °F 80 °F 101 °F (1895)
Min Temperature 41 °F 51 °F 31 °F (1993)
Degree Days  
Heating Degree Days 7 3  
Month to date heating degree days 84 24  
Since 1 July heating degree days 97 36  
Cooling Degree Days 0 3  
Month to date cooling degree days 50 69  
Year to date cooling degree days 852 902  
Growing Degree Days 7 (Base 50)    
Moisture  
Dew Point 51 °F    
Average Humidity 77    
Maximum Humidity 100    
Minimum Humidity 53    
Precipitation  
Precipitation 0.00 in 0.03 in 1.83 in (1925)
Month to date precipitation 1.07 0.60  
Year to date precipitation 14.97 16.50  
Snow  
Snow 0.00 in 0.00 in - ()
Month to date snowfall T 0.1  
Since 1 July snowfall T 0.1  
Since 1 September snowfall T 0.1  
Snow Depth 0.00 in    
Sea Level Pressure  
Sea Level Pressure 30.04 in    
Wind  
Wind Speed 8 mph (SSE)    
Max Wind Speed 20 mph    
Max Gust Speed 27 mph    
Visibility 8 miles    
Events Fog    
T = Trace of Precipitation, MM = Missing Value Source: NWS Daily Summary

Daily Weather History Graph

Daily Weather History Graph

Search for Another Location

Airport or City:

Trip Planner

Search our weather history database for the weather conditions in past years. The results will help you decide how hot, cold, wet, or windy it might be!

Date:

Astronomy

Sep. 14, 2014 Rise Set
Actual Time 6:27 AM MDT 6:56 PM MDT
Civil Twilight 6:00 AM MDT 7:23 PM MDT
Nautical Twilight 5:28 AM MDT 7:55 PM MDT
Astronomical Twilight 4:55 AM MDT 8:27 PM MDT
Moon 10:52 PM MDT (9/14) 12:33 PM MDT (9/14)
Length of Visible Light 13h 23m
Length of Day
12h 29m
Waning Gibbous, 63% of the Moon is Illuminated
Sep 14
Waning Gibbous
Sep 15
Last Quarter
Sep 24
New
Oct 1
First Quarter
Oct 8
Full

Hourly Weather History & Observations

Time (MDT) Temp. Windchill Dew Point Humidity Pressure Visibility Wind Dir Wind Speed Gust Speed Precip Events Conditions
12:53 AM 48.0 °F - 46.0 °F 93% 30.13 in 10.0 mi South 10.4 mph - N/A   Clear
1:53 AM 46.9 °F - 45.0 °F 93% 30.12 in 10.0 mi South 9.2 mph - N/A   Clear
2:53 AM 46.0 °F 42.5 °F 44.1 °F 93% 30.09 in 10.0 mi SSE 6.9 mph - N/A   Clear
3:53 AM 44.1 °F 41.5 °F 43.0 °F 96% 30.08 in 10.0 mi SSE 4.6 mph - N/A   Clear
4:53 AM 42.1 °F 37.7 °F 41.0 °F 96% 30.07 in 10.0 mi South 6.9 mph - N/A   Clear
5:53 AM 43.0 °F 38.8 °F 43.0 °F 100% 30.07 in 10.0 mi South 6.9 mph - N/A   Clear
6:53 AM 44.1 °F 40.1 °F 44.1 °F 100% 30.08 in 8.0 mi South 6.9 mph - N/A   Clear
7:53 AM 48.0 °F - 46.9 °F 96% 30.10 in 10.0 mi South 3.5 mph - N/A   Mostly Cloudy
8:01 AM 48.9 °F - 48.0 °F 97% 30.13 in 9.0 mi South 3.5 mph - N/A   Mostly Cloudy
8:13 AM 48.9 °F - 48.0 °F 97% 30.13 in 1.5 mi South 5.8 mph - N/A   Overcast
8:22 AM 48.9 °F - 48.9 °F 100% 30.13 in 0.5 mi SSE 5.8 mph - N/A Fog Fog
8:42 AM 50.0 °F - 50.0 °F 100% 30.13 in 0.2 mi SSE 5.8 mph - N/A Fog Fog
8:53 AM 50.0 °F - 50.0 °F 100% 30.10 in 0.5 mi SSE 5.8 mph - N/A Fog Fog
9:25 AM 51.1 °F - 51.1 °F 100% 30.13 in 1.0 mi SE 6.9 mph - N/A   Mist
9:40 AM 52.0 °F - 51.1 °F 97% 30.13 in 0.8 mi ESE 6.9 mph - N/A   Mist
9:48 AM 51.8 °F - 51.8 °F 100% 30.13 in 2.0 mi East 5.8 mph - N/A   Overcast
9:49 AM 51.1 °F - 51.1 °F 100% 30.10 in 2.0 mi East 5.8 mph - N/A   Overcast
10:15 AM 54.0 °F - 53.1 °F 97% 30.11 in 8.0 mi ESE 6.9 mph - N/A   Overcast
10:40 AM 57.9 °F - 54.0 °F 87% 30.10 in 10.0 mi SE 9.2 mph - N/A   Scattered Clouds
10:53 AM 59.0 °F - 54.0 °F 83% 30.05 in 10.0 mi SE 10.4 mph - N/A   Clear
11:53 AM 68.0 °F - 55.9 °F 65% 30.01 in 10.0 mi SE 15.0 mph - N/A   Clear
12:53 PM 68.0 °F - 55.0 °F 63% 30.01 in 10.0 mi South 13.8 mph - N/A   Clear
1:53 PM 66.9 °F - 55.0 °F 66% 30.00 in 10.0 mi South 9.2 mph - N/A   Clear
2:53 PM 69.1 °F - 55.0 °F 61% 29.97 in 10.0 mi South 12.7 mph - N/A   Clear
3:53 PM 72.0 °F - 55.9 °F 57% 29.95 in 10.0 mi South 10.4 mph - N/A   Clear
4:53 PM 73.9 °F - 55.9 °F 53% 29.94 in 10.0 mi South 13.8 mph - N/A   Clear
5:53 PM 73.9 °F - 55.9 °F 53% 29.90 in 10.0 mi SSE 13.8 mph - N/A   Clear
6:53 PM 68.0 °F - 55.9 °F 65% 29.92 in 10.0 mi SSE 10.4 mph - N/A   Clear
7:53 PM 64.0 °F - 55.0 °F 73% 29.93 in 10.0 mi South 9.2 mph - N/A   Clear
8:53 PM 64.9 °F - 55.0 °F 70% 29.96 in 10.0 mi ENE 9.2 mph - N/A   Clear
9:53 PM 62.1 °F - 55.9 °F 80% 29.96 in 10.0 mi East 6.9 mph - N/A   Clear
10:53 PM 61.0 °F - 55.9 °F 83% 29.97 in 10.0 mi ESE 3.5 mph - N/A   Clear
11:53 PM 57.9 °F - 55.0 °F 90% 29.97 in 10.0 mi Calm Calm - N/A   Partly Cloudy